Skip Page Navigation
NASA JPL Caltech
NASA Logo - Jet Propulsion Laboratory + View the NASA Portal
+ Center for Near-Earth Object Studies
JPL Home Earth Solar System Stars & Galaxies Technology
JPL Solar System Dynamics
BODIES ORBITS EPHEMERIDES TOOLS PHYSICAL DATA DISCOVERY FAQ SITE MAP
IMPORTANT: The SSD Announcement email list is now available. Major changes are coming in the near future, including possible hostname and/or URL changes. To be notified of such changes, subscribe to this email list.

Please visit this page for more details.


JPL Small-Body Database Browser
Search: [ help ]  
442622 (2012 SJ8)
Classification: Main-belt Asteroid          SPK-ID: 2442622
Ephemeris | Orbit Diagram | Orbital Elements | Mission Design | Physical Parameters | Discovery Circumstances ]

[ show orbit diagram ]
Orbital Elements at Epoch 2458600.5 (2019-Apr-27.0) TDB
Reference: JPL 10 (heliocentric ecliptic J2000)
 Element Value Uncertainty (1-sigma)   Units 
e .1675535306777958 9.9871e-08  
a 2.29525837308399 1.8868e-08 au
q 1.910679728855994 2.251e-07 au
i 6.097494867302321 9.7896e-06 deg
node 204.0356912021139 6.3268e-05 deg
peri 127.580438158277 8.59e-05 deg
M 342.8342678870659 4.563e-05 deg
tp 2458661.062755604344
(2019-Jun-26.56275560)
0.00016128 TDB
period 1270.123049464115
3.48
1.5662e-05
4.288e-08
d
yr
n .2834371048945925 3.495e-09 deg/d
Q 2.679837017311987 2.203e-08 au
  Orbit Determination Parameters
   # obs. used (total)      83  
   data-arc span      5158 days (14.12 yr)  
   first obs. used      2005-09-12  
   last obs. used      2019-10-27  
   planetary ephem.      DE431  
   SB-pert. ephem.      SB431-N16  
   condition code      0  
   norm. resid. RMS      .53591  
   source      ORB  
   producer      Otto Matic  
   solution date      2019-Nov-08 16:00:59  

Additional Information
 Earth MOID = .907036 au 
 Jupiter MOID = 2.69403 au 
 T_jup = 3.569 
[ show covariance matrix ]

Ephemeris | Orbit Diagram | Orbital Elements | Mission Design | Physical Parameters | Discovery Circumstances ]

Physical Parameter Table
Parameter Symbol Value Units Sigma Reference Notes
absolute magnitude H 18.2   n/a MPO336584  

442622 (2012 SJ8)          Discovered 2005-Sep-12 by Spacewatch at Kitt Peak
Reference: Last Updated: 2015-09-02
Ephemeris | Orbit Diagram | Orbital Elements | Mission Design | Physical Parameters | Discovery Circumstances ]
ABOUT SSD CREDITS/AWARDS PRIVACY/COPYRIGHT GLOSSARY LINKS
FirstGov
(server date/time)  
NASA Home Page
Site Manager:   Ryan S. Park
Webmaster  Alan B. Chamberlin